Temperature
13 13 13 13 12 12 12 12 12 13 12 11 11 11 11 11 11 10 10 11 11 11 11 11 11 11 11 11 11 10 10 10 10 10 10 10 10 10
13 13 13 12 12 12 12 12 12 12 12 11 11 11 11 10 11 10 10 10 11 10 11 10 10 10 10 10 10 10 10 10 10 10 10 10 10 9
13 13 12 12 12 12 12 12 12 12 12 11 11 11 10 10 10 10 10 10 10 10 10 10 10 10 10 10 10 10 10 10 10 10 10 9 9 9
13 12 12 12 12 12 12 12 12 11 11 11 11 11 10 10 10 10 10 10 10 10 10 10 10 10 10 10 10 10 10 9 9 9 9 9 9 9
12 12 12 12 12 12 12 12 11 11 11 11 11 11 10 10 10 10 10 10 9 10 10 10 10 10 10 10 10 10 9 9 9 9 9 9 9 9
12 12 12 12 12 12 12 11 11 11 11 11 11 10 10 10 10 10 9 9 9 9 10 9 9 9 9 9 9 9 9 9 9 9 9 9 8 8
12 12 12 12 12 12 11 11 11 11 11 11 10 10 10 10 10 9 9 9 9 9 9 9 9 9 9 9 9 9 9 9 9 9 9 8 8 8
12 12 12 12 12 12 12 11 11 11 11 11 11 10 10 10 10 10 9 9 9 9 9 9 9 8 9 9 9 9 9 9 9 8 8 8 8 8
11 11 11 11 11 11 11 11 11 11 11 11 11 10 10 10 10 9 9 9 9 9 9 8 8 8 8 8 8 8 8 8 8 8 8 8 8 8
11 11 11 11 11 11 11 11 10 11 11 10 10 10 10 10 10 9 9 9 9 9 9 8 8 8 8 8 8 8 8 8 8 8 8 8 7 7
11 11 11 11 11 11 10 10 10 10 10 10 10 10 10 10 9 9 9 8 8 8 8 8 8 8 8 8 8 8 8 8 8 7 7 7 7 7
11 11 11 11 10 10 10 10 10 10 10 10 10 10 10 9 9 9 9 8 8 8 8 8 8 7 7 7 7 7 7 7 7 7 7 7 7 7
11 11 11 11 10 10 10 10 10 10 9 9 9 9 9 9 9 9 8 8 8 8 8 8 7 7 7 7 7 7 7 6 6 6 6 6 6 6
10 10 10 11 10 10 10 10 10 9 9 9 9 9 8 8 8 8 8 8 8 8 7 7 7 7 7 6 6 6 6 6 6 6 6 6 6 6
10 10 10 10 10 10 10 10 9 9 9 8 8 8 8 8 8 8 8 8 8 7 7 7 7 7 6 6 6 6 6 6 5 5 5 5 5 5
10 10 10 10 10 10 9 9 9 9 8 8 8 8 8 8 8 8 8 7 7 7 7 7 7 7 6 6 6 6 5 5 5 5 5 5 5 5
10 10 9 9 9 9 9 9 9 9 8 8 8 8 8 8 7 7 7 7 7 7 7 7 7 6 6 6 6 5 5 5 5 5 5 5 5 4
9 9 9 9 9 9 9 9 8 8 8 8 8 8 7 7 7 7 7 7 6 6 6 6 6 6 6 6 6 5 5 5 4 4 4 4 4 4
8 8 8 8 8 8 8 8 8 8 8 8 8 8 7 7 7 7 7 6 6 6 6 6 6 5 5 5 5 5 5 5 4 4 4 4 4 4
8 8 8 8 8 8 8 8 8 8 8 8 8 7 7 7 7 7 6 6 6 6 6 5 5 5 5 5 5 5 5 4 4 4 3 3 3 3
8 8 8 8 8 8 8 8 8 8 7 7 7 7 7 7 6 6 6 6 6 5 5 5 6 5 5 5 4 4 4 4 4 3 3 3 3 3
8 8 8 8 7 7 7 7 7 7 7 7 7 7 7 6 6 6 6 6 6 5 5 5 5 5 4 4 4 4 4 4 4 3 3 3 2 2
7 7 7 7 7 7 7 7 7 7 7 6 6 6 6 6 6 6 6 6 5 5 5 5 5 4 4 4 4 4 3 3 3 3 3 3 3 2
Wind_Speed
2 3 2 2 2 2 2 3 2 2 1 1 1 1 2 3 2 2 4 6 5 5 5 5 5 4 4 4 5 5 5 5 5 6 6 6 5 5
2 3 2 2 2 2 2 2 3 2 1 1 1 2 2 2 2 2 4 6 5 4 4 4 4 3 4 4 4 4 4 5 5 5 5 5 5 4
3 3 3 2 2 3 3 2 2 1 2 1 2 2 3 2 3 2 2 3 4 4 3 3 3 3 3 4 4 4 4 4 4 4 3 3 3 4
4 3 3 3 3 3 3 3 3 2 3 3 3 3 3 2 2 2 2 2 3 4 3 3 3 3 3 3 3 3 3 3 3 2 2 2 3 3
4 4 4 4 4 4 4 3 2 2 2 4 3 3 2 2 2 2 2 2 2 4 4 3 3 3 2 2 2 2 2 2 2 2 1 2 2 2
4 4 4 4 4 4 4 4 3 3 3 4 3 4 3 3 3 3 2 2 2 3 3 3 3 4 4 3 3 2 2 2 1 1 0 1 2 2
5 5 4 2 1 2 3 4 4 4 4 4 4 4 4 4 4 3 3 2 3 3 3 3 3 3 4 4 4 4 3 2 2 1 1 2 2 3
5 4 4 4 4 4 3 3 3 5 5 5 4 5 5 4 4 4 4 3 3 3 3 3 3 3 3 3 4 5 4 3 3 3 3 3 3 4
5 5 4 4 5 5 6 7 6 5 5 5 5 5 5 5 5 5 5 5 3 2 3 3 3 3 3 3 5 5 5 5 3 3 3 4 4 5
5 5 5 5 5 4 5 6 6 6 6 6 6 5 4 4 5 5 5 4 3 3 4 4 3 4 3 4 6 7 7 6 5 4 4 5 6 6
5 5 5 5 5 5 6 6 6 5 4 4 3 2 1 2 4 4 4 5 4 4 4 4 3 4 4 4 6 8 8 7 7 6 6 6 7 8
5 5 5 5 6 8 7 7 7 6 5 5 5 5 6 6 8 7 5 5 4 4 4 4 4 3 4 4 5 5 6 7 8 8 7 7 7 7
5 5 5 7 8 9 8 7 6 5 5 5 4 4 5 5 6 7 6 5 5 4 3 4 4 4 4 4 4 5 5 5 6 6 7 7 7 7
6 5 4 7 8 9 8 6 5 5 5 5 5 5 5 5 5 5 6 6 5 5 4 5 4 5 5 5 5 4 4 6 6 5 5 6 8 9
5 3 3 6 7 7 8 8 7 6 6 6 6 6 5 4 4 4 5 4 4 5 5 6 6 6 6 6 6 5 4 4 5 5 5 5 5 6
5 4 4 6 6 6 6 7 7 6 6 6 6 5 4 4 5 5 5 4 4 5 6 7 7 7 7 7 6 6 6 5 4 5 5 6 6 7
5 5 5 5 5 6 6 6 6 6 7 6 6 6 5 5 5 5 5 5 6 6 5 4 6 6 7 7 7 7 6 6 6 5 5 6 6 7
5 6 6 7 7 7 7 7 7 7 7 7 7 7 7 6 6 6 6 6 7 6 6 5 4 4 4 5 8 8 7 7 6 6 6 7 7 6
6 7 7 7 7 7 7 7 8 8 7 7 7 7 7 7 7 7 7 7 7 7 7 6 6 6 7 7 5 9 8 6 6 6 6 7 8 7
7 7 8 8 7 7 7 7 7 7 7 8 8 8 8 8 8 8 8 8 8 7 7 7 7 8 8 8 6 5 10 8 7 7 7 7 7 7
7 7 8 8 8 7 7 7 8 7 8 8 8 8 8 8 9 9 9 9 9 8 8 8 7 7 6 5 5 7 6 9 9 7 7 7 7 7
7 7 7 8 7 7 7 7 8 8 8 8 8 8 8 9 9 10 9 9 9 9 9 7 5 5 7 8 8 8 7 5 7 10 10 9 6 6
8 7 7 8 8 7 8 9 10 9 9 9 9 9 9 9 9 9 9 9 9 9 8 7 6 6 8 8 8 8 8 7 6 6 7 11 14 15
Wind_Direction
233 230 236 214 210 218 221 232 245 227 186 156 163 101 94 79 74 99 94 92 96 100 98 96 90 87 85 80 79 73 73 73 75 77 71 65 63 65
227 230 230 226 207 206 222 239 261 259 222 143 152 140 131 119 99 100 96 106 105 106 103 99 91 90 92 97 92 81 75 78 76 76 69 61 52 54
204 212 217 218 208 205 211 225 236 223 188 162 151 163 168 155 136 141 137 135 118 113 110 107 101 100 99 100 95 87 83 82 79 74 67 59 47 39
206 209 212 199 213 214 215 219 213 215 203 177 171 180 182 172 165 165 161 149 137 120 122 124 125 115 113 109 103 99 95 85 72 63 51 42 32 25
214 212 211 204 208 205 210 212 203 197 199 192 176 168 181 172 174 168 169 174 171 151 153 156 157 158 151 149 133 125 119 111 90 64 36 13 4 357
217 221 218 214 217 208 206 204 197 195 197 198 187 183 185 183 192 184 183 192 209 184 171 174 179 190 188 183 180 175 175 171 163 148 15 340 329 331
213 221 225 233 317 241 226 211 203 204 201 204 202 199 198 195 206 203 208 213 214 207 203 202 198 203 199 200 207 203 205 214 226 245 261 281 287 289
213 214 207 201 197 210 237 251 250 227 213 209 212 215 216 210 210 216 213 219 226 201 216 220 216 223 214 214 189 196 210 222 238 247 255 266 273 275
221 216 208 205 207 216 204 210 231 254 259 244 229 228 225 210 209 214 217 228 245 216 220 228 222 228 216 198 180 193 205 211 222 238 255 265 270 276
225 222 212 207 207 219 219 220 220 216 224 236 241 240 236 220 219 222 222 225 236 210 217 240 229 236 228 218 191 199 205 210 221 238 255 267 270 268
224 226 221 213 180 203 219 222 225 222 209 235 277 279 251 218 217 210 209 217 235 225 211 236 237 244 246 237 206 199 207 216 226 236 247 261 269 265
219 220 215 221 188 200 218 221 225 223 212 206 216 216 216 205 207 219 221 228 237 235 204 223 235 240 248 230 224 217 217 219 224 228 239 253 267 271
222 221 211 194 202 210 228 231 230 235 223 220 220 219 217 213 209 219 225 233 241 245 209 216 238 237 246 257 242 231 235 240 233 230 229 236 250 259
230 228 211 183 202 211 220 221 211 221 226 221 221 222 220 218 216 214 222 230 246 251 225 222 245 247 250 257 258 240 236 242 245 251 253 234 234 237
240 239 214 190 201 211 212 210 207 216 219 221 226 229 227 225 216 213 220 225 239 245 241 237 245 248 247 256 260 258 256 248 241 250 253 253 253 249
241 219 198 196 209 220 208 209 217 220 221 226 230 229 220 212 214 214 216 218 229 238 235 239 240 243 246 252 253 256 255 254 249 255 259 259 259 255
227 222 218 211 212 216 218 218 217 217 219 226 226 223 219 217 220 218 220 222 232 237 236 236 232 234 247 253 248 249 253 255 255 256 262 266 264 257
220 223 225 224 224 223 221 221 221 222 224 224 224 224 222 221 220 218 221 227 234 237 236 232 218 225 241 248 237 244 250 253 255 251 253 264 268 268
222 232 232 232 230 229 227 226 227 227 225 224 225 225 223 224 223 223 223 229 236 239 238 232 226 227 242 255 235 218 240 250 251 251 252 258 268 274
231 236 236 234 233 231 229 230 231 228 224 225 226 225 224 225 226 227 227 229 233 238 241 238 235 233 240 256 264 248 223 238 247 253 258 262 266 268
233 236 238 237 235 234 233 232 230 229 228 227 227 226 225 226 229 232 232 228 232 236 239 242 245 239 247 253 254 253 241 228 242 255 262 264 270 268
237 240 239 240 238 236 234 232 232 232 230 230 230 228 227 228 230 231 232 230 231 235 242 246 238 230 229 238 247 256 258 247 237 242 251 254 263 268
237 242 240 238 238 237 234 232 233 235 233 232 232 231 229 230 232 231 231 232 233 234 237 239 236 234 236 238 246 252 253 253 253 251 251 239 241 254
Height
1556 1556 1556 1556 1556 1556 1557 1557 1558 1557 1557 1557 1556 1555 1555 1554 1553 1554 1553 1553 1552 1553 1552 1552 1552 1552 1551 1551 1551 1550 1550 1549 1549 1548 1547 1547 1546 1545
1554 1554 1555 1555 1555 1555 1555 1555 1556 1557 1556 1556 1555 1554 1554 1554 1553 1553 1553 1553 1552 1552 1552 1552 1552 1551 1551 1551 1550 1550 1549 1549 1548 1548 1547 1546 1545 1544
1553 1553 1553 1553 1553 1554 1554 1554 1554 1555 1555 1554 1554 1554 1554 1554 1553 1553 1553 1552 1552 1552 1552 1551 1551 1551 1550 1550 1549 1549 1549 1548 1547 1547 1546 1545 1544 1543
1552 1552 1552 1552 1552 1552 1552 1552 1553 1553 1554 1553 1553 1553 1553 1553 1552 1552 1552 1552 1552 1551 1551 1550 1550 1549 1549 1549 1548 1548 1547 1547 1546 1545 1545 1544 1543 1542
1550 1550 1550 1550 1550 1550 1550 1551 1551 1551 1551 1552 1552 1551 1551 1551 1551 1551 1551 1551 1550 1550 1549 1549 1549 1548 1548 1547 1547 1546 1546 1545 1544 1544 1543 1542 1541 1541
1547 1547 1548 1548 1549 1549 1549 1549 1549 1549 1550 1550 1550 1550 1550 1550 1550 1550 1550 1549 1549 1549 1548 1547 1547 1547 1546 1545 1545 1544 1544 1543 1543 1542 1541 1540 1540 1539
1545 1545 1545 1546 1546 1546 1547 1547 1547 1548 1548 1548 1548 1548 1548 1548 1548 1548 1548 1547 1547 1547 1546 1546 1545 1545 1544 1543 1543 1542 1542 1541 1540 1540 1539 1538 1537 1536
1542 1542 1542 1543 1543 1544 1544 1544 1545 1546 1546 1546 1546 1546 1546 1546 1546 1546 1546 1546 1546 1545 1545 1544 1544 1543 1542 1542 1541 1540 1539 1539 1538 1537 1536 1536 1535 1534
1539 1539 1539 1540 1540 1541 1541 1541 1542 1542 1543 1543 1544 1544 1544 1543 1543 1543 1543 1543 1543 1542 1542 1542 1541 1541 1540 1539 1538 1538 1537 1536 1535 1534 1534 1533 1532 1531
1536 1536 1536 1537 1537 1538 1538 1538 1539 1539 1539 1540 1540 1541 1541 1541 1540 1541 1540 1540 1540 1539 1539 1540 1539 1538 1537 1537 1535 1535 1534 1533 1532 1531 1531 1530 1529 1528
1532 1532 1533 1533 1533 1534 1535 1535 1536 1536 1536 1536 1537 1537 1537 1537 1537 1537 1537 1537 1537 1537 1536 1536 1536 1535 1535 1534 1533 1532 1531 1530 1529 1528 1527 1527 1526 1525
1529 1529 1529 1529 1530 1530 1531 1532 1532 1533 1533 1533 1533 1533 1533 1533 1534 1534 1534 1534 1534 1534 1533 1533 1532 1532 1531 1531 1530 1529 1528 1527 1526 1525 1524 1523 1522 1521
1525 1525 1525 1525 1526 1526 1527 1528 1529 1529 1529 1529 1529 1529 1529 1529 1530 1530 1530 1530 1531 1530 1529 1529 1529 1529 1528 1527 1526 1525 1524 1523 1522 1521 1520 1519 1518 1517
1521 1521 1522 1522 1522 1522 1523 1524 1524 1525 1525 1525 1525 1525 1525 1525 1525 1526 1526 1526 1526 1526 1525 1525 1525 1524 1524 1523 1523 1521 1520 1519 1518 1517 1516 1515 1514 1513
1517 1517 1518 1518 1518 1519 1519 1519 1520 1520 1520 1520 1520 1521 1521 1521 1521 1521 1521 1521 1521 1520 1520 1520 1520 1520 1520 1519 1518 1517 1517 1515 1514 1513 1512 1511 1510 1509
1512 1512 1513 1513 1514 1514 1514 1515 1515 1515 1516 1516 1516 1516 1516 1516 1516 1516 1516 1516 1516 1515 1515 1515 1515 1515 1515 1514 1514 1513 1512 1511 1510 1509 1508 1506 1505 1504
1507 1508 1508 1508 1508 1509 1509 1509 1510 1510 1511 1511 1511 1511 1511 1511 1511 1511 1511 1511 1511 1510 1510 1510 1510 1510 1509 1509 1508 1508 1507 1506 1505 1504 1503 1501 1500 1499
1502 1502 1502 1503 1503 1503 1503 1504 1504 1505 1505 1506 1506 1506 1506 1506 1506 1506 1506 1506 1506 1505 1505 1505 1505 1504 1504 1503 1504 1502 1502 1501 1500 1499 1498 1497 1495 1494
1496 1496 1496 1497 1497 1498 1498 1498 1498 1499 1499 1500 1500 1500 1500 1501 1501 1500 1500 1500 1500 1500 1500 1500 1500 1499 1499 1498 1497 1497 1497 1496 1495 1494 1493 1491 1490 1489
1489 1489 1490 1491 1491 1492 1492 1492 1492 1493 1493 1493 1494 1494 1494 1495 1495 1495 1495 1495 1495 1494 1494 1494 1494 1494 1494 1494 1492 1491 1491 1490 1489 1488 1487 1486 1484 1483
1483 1483 1484 1484 1485 1485 1486 1486 1486 1486 1487 1487 1487 1488 1488 1488 1488 1489 1489 1489 1489 1488 1488 1488 1487 1488 1488 1487 1486 1485 1485 1484 1483 1483 1481 1480 1478 1477
1477 1477 1477 1478 1478 1479 1479 1479 1479 1480 1480 1480 1480 1481 1481 1481 1482 1482 1482 1482 1482 1482 1482 1482 1482 1482 1482 1481 1480 1479 1478 1478 1477 1476 1475 1475 1473 1472
1470 1470 1470 1471 1471 1472 1472 1472 1473 1473 1473 1473 1473 1474 1474 1474 1474 1475 1475 1475 1475 1475 1475 1475 1475 1475 1475 1475 1474 1473 1472 1472 1471 1470 1469 1468 1468 1467